This demonstration page uses our WeatherBlox Daily Observations layout. Learn more.

Left ArrowRight Arrow

38.88101, -77.10428

Hourly Observations for May 10, 2021

Temp ( °F °C ) Dew Point ( °F °C ) Humidity (%) Winds ( mph kmh ) Pressure ( in mb ) Visibility ( mi km ) Precip ( " mm )
12:52 am 00:52 Mostly Cloudy 68 20 53 11.7 59 59 SSW 15 24 29.70 1006 10 16 N/A
1:52 am 01:52 Partly Cloudy 70 21.1 51 10.6 51 51 SW 10 17 29.70 1006 10 16 N/A
2:52 am 02:52 Cloudy 70 21.1 51 10.6 51 51 NNW 21 33 29.75 1007 10 16 N/A
3:05 am 03:05 Cloudy 67 19.4 51 10.6 57 57 NW 15 24 29.75 1007 10 16 N/A
3:52 am 03:52 Mostly Cloudy 63 17.2 52 11.1 68 68 NNW 13 20 29.77 1008 10 16 N/A
4:52 am 04:52 Mostly Cloudy 62 16.7 49 9.4 62 62 NW 17 28 29.80 1009 10 16 N/A
5:52 am 05:52 Mostly Cloudy 59 15 46 7.8 62 62 NW 20 31 29.85 1011 10 16 N/A
6:52 am 06:52 Mostly Cloudy 57 13.9 45 7.2 64 64 NW 16 26 29.88 1012 10 16 N/A
7:52 am 07:52 Cloudy 55 12.8 42 5.6 62 62 NNW 16 26 29.92 1013 10 16 N/A
8:52 am 08:52 Cloudy with Light Rain 54 12.2 42 5.6 64 64 NNW 15 24 29.96 1014 10 16 0.00 0.00
9:52 am 09:52 Mostly Cloudy 53 11.7 41 5 64 64 NNW 14 22 29.98 1015 10 16 0.00 0.00
10:52 am 10:52 Mostly Cloudy 56 13.3 41 5 57 57 NW 13 20 29.98 1015 10 16 N/A
11:52 am 11:52 Mostly Cloudy 59 15 42 5.6 54 54 NNW 10 17 29.98 1015 10 16 N/A
12:52 pm 12:52 Partly Cloudy 63 17.2 43 6.1 48 48 N 14 22 29.98 1015 10 16 N/A
1:52 pm 13:52 Mostly Sunny 65 18.3 44 6.7 47 47 NW 14 22 29.97 1015 10 16 N/A
2:52 pm 14:52 Mostly Sunny 66 18.9 42 5.6 42 42 NW 14 22 29.98 1015 10 16 N/A
3:52 pm 15:52 Partly Cloudy 66 18.9 42 5.6 42 42 NNW 15 24 29.96 1015 10 16 N/A
4:52 pm 16:52 Partly Cloudy 66 18.9 40 4.4 39 39 NW 16 26 29.96 1015 10 16 N/A
5:52 pm 17:52 Mostly Sunny 65 18.3 40 4.4 40 40 NNW 12 19 29.98 1015 10 16 N/A
6:52 pm 18:52 Partly Cloudy 64 17.8 37 2.8 37 37 NW 14 22 29.99 1016 10 16 N/A
7:52 pm 19:52 Mostly Sunny 63 17.2 35 1.7 35 35 NW 9 15 30.02 1017 10 16 N/A
8:52 pm 20:52 Mostly Clear 59 15 36 2.2 42 42 NNW 7 11 30.04 1017 10 16 N/A
9:52 pm 21:52 Mostly Clear 59 15 34 1.1 39 39 NW 8 13 30.06 1018 10 16 N/A
10:52 pm 22:52 Mostly Clear 56 13.3 35 1.7 46 46 NNW 8 13 30.07 1018 10 16 N/A
11:52 pm 23:52 Mostly Clear 55 12.8 34 1.1 45 45 NW 8 13 30.08 1019 10 16 N/A

Powered by AerisWeather